This is the latest recevied weather packets stored in our database for station/object W1REE. If no packets are shown the sender has not sent any weather packets the latest 10 day(s).
| Time | Temp. | Humidity | Pressure | Rain* | Wind** | Luminosity | Snow |
|---|---|---|---|---|---|---|---|
| 1777525459 | 3.89° C | 91% | 1023.1 hPa | 0 mm | - | 0 W/m² | - |
| 1777525154 | 3.89° C | 91% | 1023 hPa | 0 mm | - | 0 W/m² | - |
| 1777524852 | 3.89° C | 91% | 1023.1 hPa | 1.27 mm | - | 0 W/m² | - |
| 1777524549 | 3.89° C | 91% | 1023.4 hPa | 1.27 mm | - | 0 W/m² | - |
| 1777524247 | 3.89° C | 90% | 1023.4 hPa | 1.27 mm | - | 0 W/m² | - |
| 1777523943 | 3.89° C | 90% | 1023.4 hPa | 1.78 mm | - | 0 W/m² | - |
| 1777523639 | 3.89° C | 90% | 1023.2 hPa | 1.78 mm | - | 0 W/m² | - |
| 1777523335 | 3.89° C | 90% | 1023.2 hPa | 0 mm | - | 0 W/m² | - |
| 1777523031 | 3.89° C | 90% | 1023.5 hPa | 1.27 mm | - | 0 W/m² | - |
| 1777522729 | 3.89° C | 90% | 1023.2 hPa | 1.27 mm | - | 0 W/m² | - |
| 1777522425 | 3.89° C | 91% | 1023.6 hPa | 1.78 mm | - | 0 W/m² | - |
| 1777522122 | 4.44° C | 91% | 1023.5 hPa | 1.78 mm | - | 0 W/m² | - |
| 1777521818 | 4.44° C | 92% | 1023.6 hPa | 1.27 mm | - | 0 W/m² | - |
| 1777521515 | 4.44° C | 93% | 1023.4 hPa | 1.27 mm | - | 0 W/m² | - |
| 1777521212 | 4.44° C | 94% | 1023.4 hPa | 1.27 mm | - | 0 W/m² | - |
| 1777520910 | 4.44° C | 93% | 1023.5 hPa | 1.78 mm | - | 0 W/m² | - |
| 1777520606 | 4.44° C | 93% | 1023.5 hPa | 1.78 mm | - | 0 W/m² | - |
| 1777520303 | 4.44° C | 93% | 1023.5 hPa | 1.27 mm | - | 0 W/m² | - |
| 1777520001 | 3.89° C | 92% | 1023.4 hPa | 3.05 mm | - | 0 W/m² | - |
| 1777519697 | 4.44° C | 91% | 1023.1 hPa | 3.56 mm | - | 0 W/m² | - |
| 1777519394 | 4.44° C | 91% | 1023.2 hPa | 3.05 mm | - | 0 W/m² | - |
| 1777519091 | 4.44° C | 91% | 1023.2 hPa | 1.27 mm | - | 0 W/m² | - |
| 1777518787 | 4.44° C | 91% | 1023 hPa | 1.78 mm | - | 0 W/m² | - |
| 1777518483 | 4.44° C | 91% | 1023.2 hPa | 1.78 mm | - | 0 W/m² | - |
| 1777518179 | 4.44° C | 91% | 1023.1 hPa | 1.27 mm | - | 0 W/m² | - |
* Rain latest hour (hover to see other rain measurements)
** Current wind speed in m/s (hover to see current wind gust speed)